HST (20580 NORAD) Tracking and Keplerian Element Data

This shows tracking and keplerian element data for the satellite.

Feedback or suggestion? Click here.




ElementValue
Catalog20580
NameHST
Epoch Orbit43375
Epoch Day22.55952642
Epoch Year2020
RAAN211.1922
Inclination28.4681
Eccentricity0.0002597
Argument of Perigee312.7751
Mean Anonmoly83.0908
Mean Motion15.09328196
Decay Rate3.39E-06
L11 20580U 90037B 20022.55952642 .00000339 00000-0 96466-5 0 9999
L22 20580 28.4681 211.1922 0002597 312.7751 83.0908 15.09328196433757

Live tracking and technical data element details for HST (NORAD 20580). HST can be tracked NOW for your location showing map with azimuth and elevation plus other details from your city location.

Track the satellite on the map from your city or location and see movement details for azimuth, elevation, latitude, longitude, range, height, and movement on the map or in text.







IsCatalogInMostPopularTable: catalog: 20580, numindb: 403
Update: records affected: 1



GetName: 20580 HST

Hit Count: updated at: Fri, 24 Jan 2020 12:05:57 GMT